SWA3288 KAUS-KSJC

Flight info

Callsign SWA3288
Flight time N/A
Altitude 40000
Route AEROZ2 SJT ABQ KA33Q VALEQ LAKRR JEDNA BTY RUSME RAZRR5
Aircraft B738/M-SDE2E3FGHIRWXY/LB1

Departure

Time 2026-05-08 03:25
Airport Austin Bergstrom International Airport (KAUS)

Arrival

Time N/A
Airport Norman Y. Mineta San Jose International Airport (KSJC)
Time Latitude Longitude Altitude Speed Heading
2026-05-08 02:38 30.20140 -97.66636 526 ft 0 kts 351°
2026-05-08 03:03 30.20139 -97.66636 526 ft 0 kts 351°
2026-05-08 03:15 30.20125 -97.66634 526 ft 4 kts 351°
2026-05-08 03:15 30.20099 -97.66629 526 ft 3 kts 351°
2026-05-08 03:15 30.20078 -97.66627 526 ft 4 kts 15°
2026-05-08 03:16 30.20063 -97.66641 526 ft 3 kts 84°
2026-05-08 03:16 30.20061 -97.66667 526 ft 1 kts 85°
2026-05-08 03:18 30.20061 -97.66665 526 ft 1 kts 85°
2026-05-08 03:18 30.20065 -97.66632 526 ft 7 kts 82°
2026-05-08 03:19 30.20082 -97.66552 526 ft 13 kts 73°
2026-05-08 03:19 30.20092 -97.66439 526 ft 14 kts 91°
2026-05-08 03:19 30.20017 -97.66391 526 ft 13 kts 178°
2026-05-08 03:19 30.19926 -97.66369 526 ft 15 kts 130°
2026-05-08 03:20 30.19916 -97.66244 526 ft 17 kts 89°
2026-05-08 03:20 30.19919 -97.66095 526 ft 19 kts 89°
2026-05-08 03:20 30.19861 -97.65989 526 ft 18 kts 175°
2026-05-08 03:20 30.19738 -97.65984 526 ft 17 kts 179°
2026-05-08 03:21 30.19619 -97.65981 526 ft 17 kts 179°
2026-05-08 03:21 30.19505 -97.65978 526 ft 16 kts 179°
2026-05-08 03:21 30.19387 -97.65975 527 ft 18 kts 178°
2026-05-08 03:21 30.19256 -97.65972 527 ft 20 kts 179°
2026-05-08 03:22 30.19107 -97.65967 527 ft 23 kts 178°
2026-05-08 03:22 30.18936 -97.65963 527 ft 26 kts 179°
2026-05-08 03:22 30.18742 -97.65958 526 ft 29 kts 179°
2026-05-08 03:22 30.18532 -97.65953 526 ft 31 kts 178°
2026-05-08 03:23 30.18308 -97.65947 526 ft 33 kts 179°
2026-05-08 03:23 30.18085 -97.65941 526 ft 30 kts 179°
2026-05-08 03:23 30.17929 -97.65919 526 ft 16 kts 133°
2026-05-08 03:23 30.17918 -97.65797 527 ft 15 kts 89°
2026-05-08 03:24 30.17949 -97.65724 526 ft 8 kts
2026-05-08 03:24 30.18018 -97.65729 525 ft 16 kts 358°
2026-05-08 03:24 30.18373 -97.65736 524 ft 87 kts 359°
2026-05-08 03:24 30.19197 -97.65760 529 ft 148 kts 359°
2026-05-08 03:25 30.20369 -97.65787 804 ft 176 kts 359°
2026-05-08 03:25 30.21567 -97.65846 1703 ft 172 kts 357°
2026-05-08 03:25 30.22808 -97.65926 2139 ft 190 kts 358°
2026-05-08 03:25 30.24182 -97.66011 2324 ft 210 kts 358°
2026-05-08 03:26 30.25728 -97.66118 2490 ft 229 kts 358°
2026-05-08 03:26 30.27333 -97.66242 2768 ft 242 kts 358°
2026-05-08 03:26 30.29084 -97.66383 3035 ft 260 kts 358°
2026-05-08 03:26 30.30918 -97.66539 3578 ft 266 kts 358°
2026-05-08 03:27 30.32751 -97.66695 4174 ft 270 kts 358°
2026-05-08 03:27 30.34647 -97.66865 4733 ft 276 kts 353°
2026-05-08 03:27 30.36428 -97.67723 5253 ft 286 kts 319°
2026-05-08 03:27 30.37533 -97.69598 5899 ft 285 kts 284°
2026-05-08 03:28 30.37834 -97.71854 6688 ft 285 kts 276°
2026-05-08 03:28 30.38116 -97.74142 7442 ft 289 kts 276°
2026-05-08 03:28 30.38419 -97.76458 8178 ft 293 kts 277°
2026-05-08 03:28 30.38733 -97.78800 8932 ft 296 kts 277°
2026-05-08 03:29 30.39055 -97.81164 9642 ft 299 kts 277°
2026-05-08 03:29 30.39382 -97.83564 10386 ft 302 kts 277°
2026-05-08 03:29 30.39721 -97.86036 10638 ft 322 kts 277°
2026-05-08 03:29 30.40082 -97.88670 10848 ft 341 kts 277°
2026-05-08 03:30 30.40863 -97.94336 11502 ft 365 kts 278°
2026-05-08 03:30 30.41661 -98.00113 12989 ft 360 kts 278°
2026-05-08 03:31 30.42454 -98.05882 14144 ft 367 kts 278°
2026-05-08 03:31 30.43257 -98.11772 15261 ft 372 kts 278°
2026-05-08 03:32 30.43661 -98.14738 15810 ft 374 kts 278°
2026-05-08 03:32 30.44067 -98.17728 16367 ft 376 kts 278°
2026-05-08 03:32 30.44475 -98.20736 16891 ft 379 kts 278°
2026-05-08 03:32 30.44885 -98.23759 17436 ft 381 kts 278°
2026-05-08 03:33 30.45300 -98.26793 17943 ft 383 kts 279°
2026-05-08 03:33 30.45932 -98.29803 18421 ft 387 kts 287°
2026-05-08 03:33 30.46988 -98.32681 18905 ft 391 kts 295°
2026-05-08 03:33 30.48235 -98.35487 19380 ft 393 kts 295°
2026-05-08 03:34 30.49480 -98.38270 19841 ft 394 kts 294°
2026-05-08 03:34 30.50752 -98.41133 20318 ft 395 kts 294°
2026-05-08 03:34 30.52008 -98.43978 20757 ft 397 kts 294°
2026-05-08 03:34 30.53267 -98.46844 21158 ft 399 kts 293°
2026-05-08 03:35 30.54522 -98.49720 21586 ft 401 kts 293°
2026-05-08 03:35 30.55764 -98.52573 21984 ft 402 kts 292°
2026-05-08 03:35 30.57025 -98.55484 22411 ft 404 kts 292°
2026-05-08 03:35 30.58290 -98.58396 22821 ft 405 kts 292°
2026-05-08 03:36 30.59560 -98.61327 23197 ft 407 kts 292°
2026-05-08 03:36 30.60835 -98.64268 23526 ft 409 kts 292°
2026-05-08 03:36 30.62113 -98.67217 23856 ft 411 kts 292°
2026-05-08 03:36 30.63402 -98.70193 24164 ft 413 kts 292°
2026-05-08 03:37 30.64693 -98.73177 24465 ft 414 kts 291°
2026-05-08 03:37 30.65987 -98.76170 24795 ft 415 kts 291°
2026-05-08 03:37 30.67282 -98.79176 25102 ft 417 kts 291°
2026-05-08 03:37 30.68583 -98.82193 25388 ft 419 kts 291°
2026-05-08 03:38 30.69890 -98.85224 25655 ft 421 kts 291°
2026-05-08 03:38 30.71202 -98.88265 25938 ft 422 kts 291°
2026-05-08 03:38 30.72521 -98.91321 26212 ft 423 kts 291°
2026-05-08 03:38 30.73411 -98.93386 26366 ft 425 kts 291°
2026-05-08 03:39 30.74736 -98.96462 26632 ft 426 kts 291°
2026-05-08 03:39 30.76495 -99.00553 26963 ft 428 kts 290°
2026-05-08 03:39 30.77395 -99.02646 27102 ft 429 kts 290°
2026-05-08 03:39 30.78714 -99.05719 27331 ft 430 kts 290°
2026-05-08 03:40 30.80068 -99.08879 27569 ft 432 kts 290°
2026-05-08 03:40 30.81409 -99.12012 27784 ft 433 kts 290°
2026-05-08 03:40 30.82736 -99.15113 28029 ft 434 kts 290°
2026-05-08 03:40 30.84079 -99.18255 28358 ft 433 kts 290°
2026-05-08 03:41 30.85434 -99.21423 28740 ft 431 kts 289°
2026-05-08 03:41 30.86748 -99.24498 29084 ft 429 kts 289°
2026-05-08 03:41 30.88074 -99.27607 29381 ft 429 kts 289°
2026-05-08 03:41 30.89398 -99.30716 29702 ft 428 kts 289°
2026-05-08 03:42 30.90716 -99.33814 30047 ft 426 kts 288°
2026-05-08 03:42 30.92029 -99.36902 30353 ft 425 kts 288°
2026-05-08 03:42 30.93341 -99.39989 30637 ft 425 kts 288°
2026-05-08 03:42 30.94649 -99.43070 30960 ft 424 kts 288°
2026-05-08 03:43 30.95956 -99.46145 31329 ft 422 kts 288°
2026-05-08 03:43 30.97256 -99.49206 31691 ft 420 kts 288°
2026-05-08 03:43 30.98544 -99.52253 31990 ft 420 kts 288°
2026-05-08 03:43 30.99830 -99.55300 32313 ft 418 kts 288°
2026-05-08 03:44 31.01111 -99.58330 32680 ft 415 kts 288°
2026-05-08 03:44 31.02385 -99.61345 33012 ft 414 kts 288°
2026-05-08 03:44 31.03653 -99.64350 33288 ft 413 kts 287°
2026-05-08 03:44 31.04918 -99.67349 33566 ft 412 kts 287°
2026-05-08 03:45 31.06181 -99.70344 33871 ft 410 kts 287°
2026-05-08 03:45 31.07438 -99.73329 34140 ft 409 kts 287°
2026-05-08 03:45 31.08694 -99.76313 34394 ft 409 kts 287°
2026-05-08 03:45 31.09941 -99.79281 34676 ft 407 kts 287°
2026-05-08 03:46 31.11185 -99.82243 34953 ft 405 kts 287°
2026-05-08 03:46 31.12418 -99.85180 35249 ft 403 kts 287°
2026-05-08 03:46 31.13649 -99.88115 35527 ft 401 kts 287°
2026-05-08 03:46 31.14874 -99.91039 35755 ft 400 kts 287°
2026-05-08 03:47 31.16095 -99.93959 35997 ft 399 kts 286°
2026-05-08 03:47 31.17310 -99.96861 36263 ft 397 kts 286°
2026-05-08 03:47 31.18519 -99.99755 36447 ft 397 kts 286°
2026-05-08 03:47 31.19726 -100.02648 36679 ft 396 kts 286°
2026-05-08 03:48 31.20929 -100.05531 36880 ft 395 kts 285°
2026-05-08 03:48 31.22126 -100.08400 37175 ft 391 kts 285°
2026-05-08 03:48 31.23309 -100.11231 37578 ft 385 kts 285°
2026-05-08 03:48 31.24474 -100.14025 37911 ft 380 kts 285°
2026-05-08 03:49 31.25629 -100.16797 38096 ft 379 kts 285°
2026-05-08 03:49 31.27932 -100.22358 38269 ft 381 kts 285°
2026-05-08 03:49 31.29087 -100.25147 38371 ft 382 kts 285°
2026-05-08 03:50 31.30245 -100.27943 38457 ft 382 kts 285°
2026-05-08 03:50 31.32565 -100.33547 38611 ft 384 kts 285°
2026-05-08 03:51 31.34896 -100.39183 38753 ft 385 kts 285°
2026-05-08 03:51 31.37238 -100.44798 38847 ft 390 kts 287°
2026-05-08 03:51 31.38701 -100.47531 38898 ft 403 kts 294°
2026-05-08 03:52 31.40363 -100.50169 38981 ft 403 kts 294°
2026-05-08 03:52 31.43709 -100.55446 39082 ft 404 kts 294°
2026-05-08 03:53 31.47048 -100.60745 39165 ft 405 kts 294°
2026-05-08 03:53 31.50383 -100.66076 39200 ft 406 kts 294°
2026-05-08 03:54 31.53721 -100.71434 39238 ft 408 kts 294°
2026-05-08 03:54 31.57065 -100.76801 39310 ft 407 kts 294°
2026-05-08 03:55 31.60406 -100.82176 39349 ft 408 kts 294°
2026-05-08 03:55 31.63753 -100.87566 39406 ft 408 kts 294°
2026-05-08 03:56 31.67099 -100.92963 39418 ft 410 kts 294°
2026-05-08 03:56 31.70452 -100.98383 39454 ft 410 kts 294°
2026-05-08 03:57 31.73807 -101.03808 39479 ft 411 kts 294°
2026-05-08 03:57 31.77161 -101.09242 39522 ft 411 kts 294°
2026-05-08 03:58 31.80514 -101.14682 39531 ft 411 kts 294°
2026-05-08 03:58 31.83845 -101.20097 39560 ft 412 kts 294°
2026-05-08 03:59 31.87202 -101.25562 39574 ft 412 kts 294°
2026-05-08 03:59 31.90562 -101.31033 39600 ft 412 kts 294°
2026-05-08 04:00 31.93916 -101.36506 39646 ft 412 kts 294°
2026-05-08 04:00 31.97267 -101.41981 39668 ft 412 kts 294°
2026-05-08 04:01 32.00617 -101.47462 39699 ft 412 kts 294°
2026-05-08 04:01 32.03962 -101.52945 39729 ft 412 kts 294°
2026-05-08 04:02 32.07305 -101.58429 39771 ft 412 kts 294°
2026-05-08 04:02 32.10643 -101.63916 39784 ft 412 kts 294°
2026-05-08 04:03 32.13982 -101.69413 39790 ft 412 kts 294°
2026-05-08 04:03 32.18992 -101.77673 39802 ft 413 kts 294°
2026-05-08 04:04 32.22328 -101.83182 39824 ft 413 kts 294°
2026-05-08 04:04 32.25664 -101.88700 39832 ft 412 kts 294°
2026-05-08 04:05 32.28997 -101.94222 39833 ft 413 kts 294°
2026-05-08 04:05 32.32328 -101.99745 39842 ft 413 kts 294°
2026-05-08 04:06 32.35659 -102.05284 39843 ft 413 kts 294°
2026-05-08 04:06 32.38968 -102.10790 39853 ft 414 kts 294°
2026-05-08 04:07 32.42302 -102.16349 39857 ft 414 kts 294°
2026-05-08 04:07 32.45638 -102.21916 39868 ft 415 kts 294°
2026-05-08 04:08 32.48968 -102.27474 40022 ft 412 kts 294°
2026-05-08 04:08 32.52272 -102.33000 40083 ft 411 kts 294°
2026-05-08 04:09 32.55570 -102.38530 40091 ft 411 kts 294°
2026-05-08 04:09 32.58868 -102.44070 40097 ft 411 kts 294°